RYR799J LIME-LEMD

Flight info

Callsign RYR799J
Flight time 2h 1m
Altitude 31000
Route VOG DCT GEKBA DCT VAMTU DCT KOLON DCT GANGU DCT PADKO DCT DIVKO DCT NILDU DCT NENDA N975 ADUXO
Aircraft B738/M-SDE3FGIJ1LRWY/SB1

Departure

Time 2026-05-08 01:15
Airport Il Caravaggio International Airport (LIME)

Arrival

Time 2026-05-08 03:16
Airport Adolfo Suárez Madrid–Barajas Airport (LEMD)
Time Latitude Longitude Altitude Speed Heading
2026-05-08 00:31 45.66593 9.70394 786 ft 0 kts 195°
2026-05-08 01:03 45.66596 9.70395 786 ft 3 kts 194°
2026-05-08 01:03 45.66622 9.70397 800 ft 4 kts 174°
2026-05-08 01:03 45.66645 9.70397 786 ft 4 kts 172°
2026-05-08 01:03 45.66667 9.70383 786 ft 4 kts 128°
2026-05-08 01:04 45.66676 9.70357 786 ft 1 kts 105°
2026-05-08 01:04 45.66677 9.70352 786 ft 0 kts 105°
2026-05-08 01:08 45.66677 9.70353 786 ft 0 kts 105°
2026-05-08 01:08 45.66674 9.70367 786 ft 3 kts 105°
2026-05-08 01:08 45.66665 9.70410 786 ft 6 kts 105°
2026-05-08 01:09 45.66652 9.70483 786 ft 9 kts 104°
2026-05-08 01:09 45.66635 9.70581 786 ft 11 kts 104°
2026-05-08 01:09 45.66612 9.70702 786 ft 14 kts 105°
2026-05-08 01:09 45.66586 9.70841 786 ft 16 kts 105°
2026-05-08 01:10 45.66557 9.70998 786 ft 17 kts 105°
2026-05-08 01:10 45.66520 9.71151 786 ft 16 kts 107°
2026-05-08 01:10 45.66489 9.71300 786 ft 15 kts 106°
2026-05-08 01:10 45.66465 9.71420 786 ft 11 kts 105°
2026-05-08 01:11 45.66446 9.71522 786 ft 10 kts 103°
2026-05-08 01:11 45.66443 9.71623 786 ft 10 kts 83°
2026-05-08 01:11 45.66457 9.71719 786 ft 10 kts 76°
2026-05-08 01:11 45.66473 9.71822 786 ft 12 kts 87°
2026-05-08 01:12 45.66457 9.71946 786 ft 14 kts 104°
2026-05-08 01:12 45.66432 9.72083 786 ft 15 kts 104°
2026-05-08 01:12 45.66404 9.72238 786 ft 17 kts 104°
2026-05-08 01:12 45.66375 9.72403 786 ft 9 kts 102°
2026-05-08 01:13 45.66381 9.72503 786 ft 11 kts 81°
2026-05-08 01:13 45.66427 9.72569 786 ft 11 kts 337°
2026-05-08 01:13 45.66440 9.72538 786 ft 0 kts 284°
2026-05-08 01:14 45.66478 9.72335 786 ft 54 kts 285°
2026-05-08 01:14 45.66635 9.71495 786 ft 119 kts 285°
2026-05-08 01:15 45.66900 9.70099 814 ft 168 kts 285°
2026-05-08 01:15 45.67221 9.68474 1458 ft 166 kts 288°
2026-05-08 01:15 45.67364 9.66771 1854 ft 183 kts 258°
2026-05-08 01:15 45.66706 9.65235 2172 ft 186 kts 216°
2026-05-08 01:16 45.65674 9.64167 2719 ft 179 kts 218°
2026-05-08 01:16 45.64723 9.63031 3182 ft 180 kts 220°
2026-05-08 01:16 45.63807 9.61829 3697 ft 174 kts 222°
2026-05-08 01:16 45.62921 9.60599 4216 ft 186 kts 223°
2026-05-08 01:17 45.61971 9.59255 4875 ft 192 kts 223°
2026-05-08 01:17 45.60980 9.57875 5114 ft 213 kts 223°
2026-05-08 01:17 45.59868 9.56315 5331 ft 232 kts 223°
2026-05-08 01:17 45.58697 9.54656 5806 ft 240 kts 224°
2026-05-08 01:18 45.57503 9.52958 6472 ft 243 kts 224°
2026-05-08 01:18 45.56308 9.51254 7252 ft 243 kts 224°
2026-05-08 01:18 45.55100 9.49519 7775 ft 255 kts 225°
2026-05-08 01:18 45.53795 9.47629 8079 ft 275 kts 225°
2026-05-08 01:19 45.52431 9.45652 8745 ft 281 kts 225°
2026-05-08 01:19 45.51070 9.43683 9511 ft 284 kts 225°
2026-05-08 01:19 45.49677 9.41670 10229 ft 287 kts 226°
2026-05-08 01:19 45.48197 9.39605 10473 ft 310 kts 220°
2026-05-08 01:20 45.46360 9.37797 10652 ft 332 kts 212°
2026-05-08 01:20 45.44313 9.36113 11041 ft 346 kts 210°
2026-05-08 01:20 45.42196 9.34441 11660 ft 351 kts 210°
2026-05-08 01:20 45.40059 9.32750 12418 ft 352 kts 210°
2026-05-08 01:21 45.37918 9.31035 13155 ft 355 kts 210°
2026-05-08 01:21 45.35755 9.29281 13855 ft 360 kts 210°
2026-05-08 01:21 45.33575 9.27496 14526 ft 363 kts 211°
2026-05-08 01:21 45.31383 9.25694 15211 ft 365 kts 211°
2026-05-08 01:22 45.29171 9.23871 15904 ft 369 kts 211°
2026-05-08 01:22 45.26968 9.22054 16573 ft 372 kts 210°
2026-05-08 01:22 45.24716 9.20196 17234 ft 376 kts 210°
2026-05-08 01:22 45.22442 9.18322 17900 ft 380 kts 210°
2026-05-08 01:23 45.20145 9.16429 18516 ft 383 kts 210°
2026-05-08 01:23 45.17831 9.14525 19097 ft 386 kts 211°
2026-05-08 01:23 45.15497 9.12606 19747 ft 387 kts 211°
2026-05-08 01:23 45.13169 9.10694 20383 ft 388 kts 211°
2026-05-08 01:24 45.10821 9.08768 20989 ft 390 kts 211°
2026-05-08 01:24 45.08468 9.06839 21576 ft 391 kts 212°
2026-05-08 01:24 45.06099 9.04898 22154 ft 393 kts 212°
2026-05-08 01:24 45.03753 9.02977 22711 ft 395 kts 212°
2026-05-08 01:25 45.01365 9.01025 23272 ft 397 kts 212°
2026-05-08 01:25 44.98965 8.99066 23781 ft 399 kts 212°
2026-05-08 01:25 44.96602 8.96990 24232 ft 399 kts 220°
2026-05-08 01:25 44.94692 8.94176 24667 ft 397 kts 233°
2026-05-08 01:26 44.92979 8.91106 25139 ft 398 kts 233°
2026-05-08 01:26 44.91260 8.88040 25662 ft 397 kts 232°
2026-05-08 01:26 44.89546 8.85004 26283 ft 393 kts 232°
2026-05-08 01:26 44.87862 8.82042 26926 ft 390 kts 232°
2026-05-08 01:27 44.86168 8.79074 27533 ft 387 kts 232°
2026-05-08 01:27 44.84482 8.76132 28109 ft 385 kts 231°
2026-05-08 01:27 44.82800 8.73205 28690 ft 383 kts 231°
2026-05-08 01:27 44.81132 8.70307 29300 ft 380 kts 231°
2026-05-08 01:28 44.79467 8.67419 29898 ft 377 kts 231°
2026-05-08 01:28 44.77820 8.64563 30413 ft 374 kts 231°
2026-05-08 01:28 44.76181 8.61725 30862 ft 373 kts 231°
2026-05-08 01:28 44.74557 8.58916 30999 ft 374 kts 231°
2026-05-08 01:29 44.72924 8.56095 31031 ft 372 kts 231°
2026-05-08 01:29 44.69642 8.50431 31032 ft 374 kts 231°
2026-05-08 01:30 44.66348 8.44758 31036 ft 375 kts 231°
2026-05-08 01:30 44.63047 8.39084 31029 ft 375 kts 231°
2026-05-08 01:31 44.59761 8.33449 31040 ft 374 kts 230°
2026-05-08 01:31 44.56464 8.27805 31024 ft 373 kts 230°
2026-05-08 01:32 44.53174 8.22183 31030 ft 373 kts 230°
2026-05-08 01:32 44.49897 8.16595 31018 ft 372 kts 230°
2026-05-08 01:33 44.46609 8.10999 31038 ft 372 kts 230°
2026-05-08 01:33 44.43318 8.05409 31044 ft 371 kts 230°
2026-05-08 01:34 44.40020 7.99818 31030 ft 372 kts 230°
2026-05-08 01:34 44.36739 7.94266 31023 ft 372 kts 230°
2026-05-08 01:35 44.33431 7.88678 31025 ft 373 kts 230°
2026-05-08 01:35 44.30113 7.83081 31011 ft 374 kts 230°
2026-05-08 01:36 44.26755 7.77531 31008 ft 373 kts 226°
2026-05-08 01:36 44.22889 7.72693 31018 ft 373 kts 221°
2026-05-08 01:37 44.18989 7.67979 31039 ft 373 kts 221°
2026-05-08 01:37 44.15090 7.63187 31011 ft 374 kts 222°
2026-05-08 01:38 44.11550 7.57889 31019 ft 374 kts 228°
2026-05-08 01:38 44.08158 7.52372 31032 ft 374 kts 229°
2026-05-08 01:39 44.04781 7.46918 31001 ft 374 kts 228°
2026-05-08 01:39 44.01367 7.41453 31000 ft 374 kts 228°
2026-05-08 01:40 43.97946 7.36003 30996 ft 374 kts 228°
2026-05-08 01:40 43.94524 7.30567 31002 ft 374 kts 228°
2026-05-08 01:41 43.91678 7.26055 31013 ft 373 kts 228°
2026-05-08 01:41 43.88246 7.20619 31007 ft 374 kts 227°
2026-05-08 01:42 43.84254 7.14312 30998 ft 375 kts 228°
2026-05-08 01:42 43.81371 7.09764 30991 ft 375 kts 227°
2026-05-08 01:43 43.77953 7.04380 30995 ft 375 kts 227°
2026-05-08 01:43 43.74509 6.98968 30996 ft 375 kts 227°
2026-05-08 01:44 43.71512 6.93073 30995 ft 377 kts 242°
2026-05-08 01:44 43.69516 6.86393 30996 ft 378 kts 245°
2026-05-08 01:45 43.67551 6.79623 31007 ft 379 kts 245°
2026-05-08 01:45 43.65575 6.72889 30993 ft 379 kts 245°
2026-05-08 01:46 43.63582 6.66143 30993 ft 380 kts 245°
2026-05-08 01:46 43.61577 6.59389 30998 ft 380 kts 245°
2026-05-08 01:47 43.59567 6.52638 31008 ft 380 kts 245°
2026-05-08 01:47 43.57552 6.45887 31018 ft 380 kts 245°
2026-05-08 01:48 43.54545 6.35842 30990 ft 378 kts 245°
2026-05-08 01:48 43.52532 6.29138 30994 ft 377 kts 245°
2026-05-08 01:49 43.50524 6.22471 31005 ft 376 kts 245°
2026-05-08 01:49 43.48517 6.15821 30995 ft 376 kts 245°
2026-05-08 01:50 43.46508 6.09184 30988 ft 376 kts 245°
2026-05-08 01:50 43.44500 6.02576 31004 ft 376 kts 245°
2026-05-08 01:51 43.42472 5.95917 30993 ft 377 kts 245°
2026-05-08 01:51 43.40443 5.89272 31001 ft 377 kts 245°
2026-05-08 01:52 43.38405 5.82609 30990 ft 377 kts 245°
2026-05-08 01:52 43.36379 5.76003 30995 ft 377 kts 245°
2026-05-08 01:53 43.34339 5.69364 31006 ft 377 kts 245°
2026-05-08 01:53 43.32291 5.62720 30996 ft 377 kts 244°
2026-05-08 01:54 43.30251 5.56120 30992 ft 377 kts 244°
2026-05-08 01:54 43.28193 5.49476 30981 ft 377 kts 245°
2026-05-08 01:55 43.26146 5.42882 30998 ft 377 kts 245°
2026-05-08 01:55 43.24083 5.36254 30988 ft 378 kts 244°
2026-05-08 01:56 43.22007 5.29607 31011 ft 379 kts 244°
2026-05-08 01:56 43.19927 5.22969 30996 ft 379 kts 244°
2026-05-08 01:57 43.17860 5.16383 30994 ft 378 kts 244°
2026-05-08 01:57 43.15781 5.09774 30992 ft 377 kts 244°
2026-05-08 01:58 43.13702 5.03183 31001 ft 376 kts 244°
2026-05-08 01:58 43.11627 4.96619 30993 ft 376 kts 244°
2026-05-08 01:59 43.09549 4.90057 31012 ft 376 kts 244°
2026-05-08 01:59 43.07461 4.83487 31005 ft 376 kts 244°
2026-05-08 02:00 43.04959 4.77322 31008 ft 373 kts 236°
2026-05-08 02:00 43.02706 4.70897 31005 ft 375 kts 244°
2026-05-08 02:01 43.00618 4.64355 31006 ft 376 kts 243°
2026-05-08 02:01 42.98504 4.57825 31006 ft 376 kts 243°
2026-05-08 02:02 42.96361 4.51296 31004 ft 377 kts 243°
2026-05-08 02:02 42.94216 4.44807 31007 ft 377 kts 243°
2026-05-08 02:03 42.92046 4.38268 30997 ft 378 kts 243°
2026-05-08 02:03 42.89876 4.31747 31004 ft 378 kts 243°
2026-05-08 02:04 42.87694 4.25207 31000 ft 379 kts 243°
2026-05-08 02:04 42.85510 4.18674 31011 ft 379 kts 243°
2026-05-08 02:05 42.83315 4.12127 31002 ft 379 kts 243°
2026-05-08 02:05 42.81130 4.05624 30994 ft 379 kts 243°
2026-05-08 02:06 42.78929 3.99086 30994 ft 379 kts 243°
2026-05-08 02:06 42.76723 3.92552 30988 ft 379 kts 243°
2026-05-08 02:07 42.74530 3.86071 30990 ft 379 kts 243°
2026-05-08 02:07 42.72320 3.79557 30981 ft 379 kts 243°
2026-05-08 02:08 42.70099 3.73027 30981 ft 379 kts 243°
2026-05-08 02:08 42.67891 3.66548 30979 ft 380 kts 243°
2026-05-08 02:09 42.65663 3.60027 30981 ft 380 kts 243°
2026-05-08 02:09 42.63429 3.53501 30975 ft 381 kts 243°
2026-05-08 02:10 42.61188 3.46974 30973 ft 381 kts 243°
2026-05-08 02:10 42.58946 3.40456 30973 ft 381 kts 243°
2026-05-08 02:11 42.56713 3.33983 30965 ft 381 kts 243°
2026-05-08 02:11 42.54463 3.27474 30966 ft 380 kts 243°
2026-05-08 02:12 42.52213 3.20982 30965 ft 380 kts 243°
2026-05-08 02:12 42.49963 3.14502 30961 ft 380 kts 243°
2026-05-08 02:13 42.47711 3.08033 30968 ft 379 kts 243°
2026-05-08 02:13 42.45468 3.01605 30981 ft 380 kts 243°
2026-05-08 02:14 42.43201 2.95124 30968 ft 380 kts 243°
2026-05-08 02:14 42.40930 2.88646 30970 ft 381 kts 243°
2026-05-08 02:15 42.38653 2.82167 30965 ft 381 kts 243°
2026-05-08 02:15 42.36375 2.75700 30958 ft 380 kts 244°
2026-05-08 02:16 42.34112 2.69289 30972 ft 380 kts 244°
2026-05-08 02:16 42.31830 2.62842 30977 ft 379 kts 245°
2026-05-08 02:17 42.29552 2.56418 30973 ft 379 kts 245°
2026-05-08 02:17 42.27272 2.50005 30972 ft 378 kts 245°
2026-05-08 02:18 42.24995 2.43615 30981 ft 376 kts 245°
2026-05-08 02:18 42.22736 2.37289 30978 ft 376 kts 245°
2026-05-08 02:19 42.20461 2.30931 30979 ft 376 kts 245°
2026-05-08 02:19 42.18181 2.24578 30994 ft 376 kts 246°
2026-05-08 02:20 42.15902 2.18242 30982 ft 375 kts 248°
2026-05-08 02:20 42.13624 2.11920 30991 ft 374 kts 248°
2026-05-08 02:21 42.11365 2.05664 30995 ft 373 kts 248°
2026-05-08 02:21 42.09093 1.99385 31001 ft 373 kts 248°
2026-05-08 02:22 42.06816 1.93109 31004 ft 373 kts 248°
2026-05-08 02:22 42.04536 1.86840 30999 ft 372 kts 249°
2026-05-08 02:23 42.02260 1.80593 31003 ft 371 kts 249°
2026-05-08 02:23 41.99982 1.74356 31004 ft 371 kts 249°
2026-05-08 02:24 41.97706 1.68136 30993 ft 371 kts 249°
2026-05-08 02:24 41.95432 1.61937 30982 ft 369 kts 250°
2026-05-08 02:25 41.93172 1.55791 30980 ft 368 kts 250°
2026-05-08 02:25 41.90905 1.49637 30996 ft 367 kts 250°
2026-05-08 02:26 41.88639 1.43498 30986 ft 366 kts 250°
2026-05-08 02:26 41.86381 1.37395 30965 ft 365 kts 250°
2026-05-08 02:27 41.84124 1.31306 30987 ft 364 kts 250°
2026-05-08 02:27 41.81869 1.25234 30990 ft 364 kts 250°
2026-05-08 02:28 41.79988 1.20180 30982 ft 364 kts 250°
2026-05-08 02:28 41.77354 1.13118 30980 ft 365 kts 250°
2026-05-08 02:29 41.75083 1.07045 30985 ft 364 kts 250°
2026-05-08 02:29 41.73192 1.01998 31005 ft 364 kts 250°
2026-05-08 02:30 41.70916 0.95933 31009 ft 365 kts 250°
2026-05-08 02:30 41.68261 0.88878 31004 ft 365 kts 250°
2026-05-08 02:31 41.66348 0.83801 31001 ft 365 kts 250°
2026-05-08 02:31 41.64073 0.77779 30999 ft 365 kts 250°
2026-05-08 02:32 41.61779 0.71719 30990 ft 365 kts 249°
2026-05-08 02:32 41.59483 0.65666 30998 ft 365 kts 249°
2026-05-08 02:33 41.57180 0.59606 30999 ft 366 kts 249°
2026-05-08 02:33 41.54871 0.53542 30985 ft 366 kts 248°
2026-05-08 02:34 41.52567 0.47507 30989 ft 367 kts 248°
2026-05-08 02:34 41.50244 0.41439 31004 ft 367 kts 248°
2026-05-08 02:35 41.47914 0.35368 30989 ft 367 kts 248°
2026-05-08 02:35 41.45584 0.29305 30988 ft 367 kts 248°
2026-05-08 02:36 41.43268 0.23288 31000 ft 368 kts 248°
2026-05-08 02:36 41.40925 0.17214 31000 ft 368 kts 248°
2026-05-08 02:37 41.38574 0.11132 30981 ft 368 kts 248°
2026-05-08 02:37 41.36241 0.05108 30994 ft 368 kts 247°
2026-05-08 02:38 41.33892 -0.00946 30971 ft 368 kts 246°
2026-05-08 02:38 41.31536 -0.07003 30985 ft 368 kts 246°
2026-05-08 02:39 41.29174 -0.13065 30991 ft 369 kts 246°
2026-05-08 02:39 41.26804 -0.19134 30989 ft 370 kts 246°
2026-05-08 02:40 41.24424 -0.25216 30990 ft 371 kts 246°
2026-05-08 02:40 41.22055 -0.31259 30988 ft 371 kts 246°
2026-05-08 02:41 41.19665 -0.37341 30988 ft 371 kts 246°
2026-05-08 02:41 41.17275 -0.43410 30988 ft 371 kts 246°
2026-05-08 02:42 41.14884 -0.49470 30990 ft 370 kts 246°
2026-05-08 02:42 41.12493 -0.55518 30975 ft 369 kts 245°
2026-05-08 02:43 41.10123 -0.61499 30991 ft 368 kts 245°
2026-05-08 02:43 41.07738 -0.67508 31008 ft 368 kts 245°
2026-05-08 02:44 41.05349 -0.73516 31002 ft 369 kts 245°
2026-05-08 02:44 41.02954 -0.79525 30998 ft 369 kts 244°
2026-05-08 02:45 41.00548 -0.85547 31004 ft 370 kts 244°
2026-05-08 02:45 40.98154 -0.91529 31017 ft 371 kts 244°
2026-05-08 02:46 40.95732 -0.97570 31020 ft 371 kts 244°
2026-05-08 02:46 40.93303 -1.03614 31010 ft 372 kts 244°
2026-05-08 02:47 40.90872 -1.09650 31013 ft 372 kts 244°
2026-05-08 02:47 40.88443 -1.15672 31011 ft 371 kts 243°
2026-05-08 02:48 40.86046 -1.21599 30990 ft 360 kts 243°
2026-05-08 02:48 40.84880 -1.24476 30855 ft 351 kts 243°
2026-05-08 02:48 40.83738 -1.27294 30655 ft 344 kts 243°
2026-05-08 02:49 40.82609 -1.30075 30311 ft 342 kts 243°
2026-05-08 02:49 40.81490 -1.32833 29990 ft 340 kts 243°
2026-05-08 02:49 40.80377 -1.35572 29594 ft 337 kts 243°
2026-05-08 02:49 40.79271 -1.38293 29233 ft 334 kts 243°
2026-05-08 02:50 40.78176 -1.40982 28878 ft 331 kts 243°
2026-05-08 02:50 40.77087 -1.43655 28531 ft 328 kts 243°
2026-05-08 02:50 40.76026 -1.46257 28187 ft 326 kts 243°
2026-05-08 02:50 40.74955 -1.48879 27837 ft 323 kts 243°
2026-05-08 02:51 40.73893 -1.51480 27496 ft 321 kts 243°
2026-05-08 02:51 40.72837 -1.54064 27171 ft 319 kts 243°
2026-05-08 02:51 40.71786 -1.56631 26828 ft 317 kts 242°
2026-05-08 02:51 40.70737 -1.59192 26507 ft 317 kts 242°
2026-05-08 02:52 40.69687 -1.61754 26174 ft 317 kts 242°
2026-05-08 02:52 40.68631 -1.64330 25813 ft 321 kts 242°
2026-05-08 02:52 40.67568 -1.66919 25490 ft 320 kts 242°
2026-05-08 02:52 40.66510 -1.69492 25162 ft 319 kts 242°
2026-05-08 02:53 40.65456 -1.72054 24839 ft 317 kts 242°
2026-05-08 02:53 40.64406 -1.74604 24515 ft 317 kts 242°
2026-05-08 02:53 40.63370 -1.77119 24191 ft 316 kts 242°
2026-05-08 02:53 40.62319 -1.79667 23848 ft 317 kts 242°
2026-05-08 02:54 40.61268 -1.82214 23509 ft 317 kts 242°
2026-05-08 02:54 40.60215 -1.84762 23116 ft 316 kts 242°
2026-05-08 02:54 40.59168 -1.87296 22778 ft 314 kts 242°
2026-05-08 02:54 40.58122 -1.89822 22448 ft 313 kts 242°
2026-05-08 02:55 40.57081 -1.92327 22133 ft 311 kts 241°
2026-05-08 02:55 40.55020 -1.97296 21497 ft 308 kts 241°
2026-05-08 02:55 40.53998 -1.99761 21184 ft 306 kts 241°
2026-05-08 02:56 40.52979 -2.02215 20876 ft 305 kts 241°
2026-05-08 02:56 40.51964 -2.04655 20565 ft 304 kts 241°
2026-05-08 02:56 40.50946 -2.07088 20259 ft 302 kts 240°
2026-05-08 02:56 40.49871 -2.09453 19953 ft 301 kts 238°
2026-05-08 02:57 40.48769 -2.11783 19654 ft 300 kts 238°
2026-05-08 02:57 40.47666 -2.14109 19348 ft 299 kts 238°
2026-05-08 02:57 40.46582 -2.16403 19040 ft 298 kts 238°
2026-05-08 02:57 40.45492 -2.18717 18743 ft 297 kts 238°
2026-05-08 02:58 40.44409 -2.21026 18443 ft 296 kts 238°
2026-05-08 02:58 40.43331 -2.23327 18125 ft 296 kts 238°
2026-05-08 02:58 40.42255 -2.25625 17782 ft 294 kts 238°
2026-05-08 02:58 40.41185 -2.27909 17471 ft 292 kts 238°
2026-05-08 02:59 40.40122 -2.30173 17178 ft 290 kts 238°
2026-05-08 02:59 40.39067 -2.32417 16864 ft 289 kts 238°
2026-05-08 02:59 40.38017 -2.34650 16586 ft 286 kts 237°
2026-05-08 02:59 40.36972 -2.36867 16283 ft 285 kts 237°
2026-05-08 03:00 40.35933 -2.39073 15989 ft 284 kts 237°
2026-05-08 03:00 40.34898 -2.41269 15700 ft 282 kts 237°
2026-05-08 03:00 40.33878 -2.43433 15410 ft 281 kts 237°
2026-05-08 03:00 40.32850 -2.45614 15103 ft 281 kts 237°
2026-05-08 03:01 40.31823 -2.47792 14804 ft 280 kts 237°
2026-05-08 03:01 40.30802 -2.49956 14542 ft 278 kts 237°
2026-05-08 03:01 40.29797 -2.52086 14432 ft 271 kts 237°
2026-05-08 03:01 40.28813 -2.54166 14294 ft 265 kts 237°
2026-05-08 03:02 40.27862 -2.56174 14177 ft 259 kts 237°
2026-05-08 03:02 40.26925 -2.58150 14061 ft 252 kts 237°
2026-05-08 03:02 40.26156 -2.60177 13897 ft 249 kts 255°
2026-05-08 03:02 40.26001 -2.62442 13705 ft 252 kts 266°
2026-05-08 03:03 40.25988 -2.64763 13440 ft 257 kts 267°
2026-05-08 03:03 40.25990 -2.67116 13229 ft 260 kts 267°
2026-05-08 03:03 40.25991 -2.69505 12979 ft 264 kts 267°
2026-05-08 03:03 40.25991 -2.71914 12717 ft 264 kts 267°
2026-05-08 03:04 40.25990 -2.74319 12453 ft 263 kts 267°
2026-05-08 03:04 40.25986 -2.76707 12194 ft 261 kts 267°
2026-05-08 03:04 40.25981 -2.79078 11942 ft 260 kts 267°
2026-05-08 03:04 40.25974 -2.81436 11691 ft 259 kts 267°
2026-05-08 03:05 40.25966 -2.83789 11453 ft 258 kts 267°
2026-05-08 03:05 40.25956 -2.86138 11198 ft 258 kts 267°
2026-05-08 03:05 40.25947 -2.88487 10955 ft 258 kts 268°
2026-05-08 03:05 40.25937 -2.90841 10697 ft 258 kts 268°
2026-05-08 03:06 40.25926 -2.93190 10440 ft 258 kts 268°
2026-05-08 03:06 40.25914 -2.95545 10202 ft 258 kts 268°
2026-05-08 03:06 40.25903 -2.97897 9947 ft 258 kts 268°
2026-05-08 03:06 40.25891 -3.00250 9675 ft 258 kts 268°
2026-05-08 03:07 40.25879 -3.02560 9422 ft 257 kts 268°
2026-05-08 03:07 40.25866 -3.04908 9152 ft 257 kts 268°
2026-05-08 03:07 40.25853 -3.07245 8912 ft 256 kts 267°
2026-05-08 03:07 40.25839 -3.09573 8651 ft 255 kts 267°
2026-05-08 03:08 40.25824 -3.11886 8435 ft 251 kts 267°
2026-05-08 03:08 40.25838 -3.14144 8169 ft 246 kts 274°
2026-05-08 03:08 40.26101 -3.16331 7934 ft 240 kts 278°
2026-05-08 03:08 40.26412 -3.18466 7690 ft 237 kts 278°
2026-05-08 03:09 40.26708 -3.20568 7458 ft 233 kts 278°
2026-05-08 03:09 40.26991 -3.22637 7213 ft 228 kts 278°
2026-05-08 03:09 40.27268 -3.24667 6983 ft 224 kts 277°
2026-05-08 03:09 40.27530 -3.26625 6789 ft 218 kts 277°
2026-05-08 03:10 40.27788 -3.28567 6577 ft 214 kts 277°
2026-05-08 03:10 40.28040 -3.30467 6380 ft 210 kts 277°
2026-05-08 03:10 40.28287 -3.32350 6166 ft 208 kts 278°
2026-05-08 03:10 40.28730 -3.34120 5978 ft 202 kts 291°
2026-05-08 03:11 40.29249 -3.35798 5765 ft 196 kts 289°
2026-05-08 03:11 40.29733 -3.37443 5567 ft 191 kts 288°
2026-05-08 03:11 40.30295 -3.39001 5351 ft 191 kts 309°
2026-05-08 03:11 40.31341 -3.40089 5237 ft 194 kts 322°
2026-05-08 03:12 40.32421 -3.41179 5023 ft 197 kts 320°
2026-05-08 03:12 40.33499 -3.42292 4827 ft 196 kts 320°
2026-05-08 03:12 40.34546 -3.43366 4619 ft 191 kts 320°
2026-05-08 03:12 40.35588 -3.44431 4459 ft 186 kts 321°
2026-05-08 03:13 40.36579 -3.45443 4319 ft 177 kts 321°
2026-05-08 03:13 40.37525 -3.46410 4194 ft 171 kts 322°
2026-05-08 03:13 40.38452 -3.47356 3978 ft 167 kts 322°
2026-05-08 03:13 40.39356 -3.48279 3750 ft 163 kts 322°
2026-05-08 03:14 40.40245 -3.49187 3535 ft 163 kts 323°
2026-05-08 03:14 40.41139 -3.50100 3308 ft 162 kts 324°
2026-05-08 03:14 40.42024 -3.51004 3110 ft 161 kts 324°
2026-05-08 03:14 40.42887 -3.51877 2846 ft 149 kts 324°
2026-05-08 03:15 40.43703 -3.52683 2571 ft 146 kts 321°
2026-05-08 03:15 40.44463 -3.53483 2422 ft 139 kts 321°
2026-05-08 03:15 40.45238 -3.54288 2261 ft 144 kts 322°
2026-05-08 03:15 40.46024 -3.55087 2061 ft 139 kts 320°
2026-05-08 03:16 40.46769 -3.55856 1972 ft 133 kts 321°
2026-05-08 03:16 40.47415 -3.56508 1990 ft 96 kts 322°
2026-05-08 03:16 40.47761 -3.56861 1994 ft 40 kts 322°
2026-05-08 03:16 40.47936 -3.57040 1999 ft 29 kts 323°
2026-05-08 03:17 40.48020 -3.57134 2004 ft 8 kts 296°
2026-05-08 03:17 40.48008 -3.57185 2003 ft 5 kts 233°
2026-05-08 03:17 40.47986 -3.57223 2004 ft 5 kts 234°
2026-05-08 03:17 40.47963 -3.57264 2001 ft 6 kts 232°
2026-05-08 03:18 40.47930 -3.57289 2003 ft 6 kts 180°
2026-05-08 03:18 40.47890 -3.57261 2001 ft 8 kts 141°
2026-05-08 03:18 40.47839 -3.57208 2001 ft 11 kts 142°
2026-05-08 03:18 40.47774 -3.57141 1999 ft 13 kts 142°
2026-05-08 03:19 40.47724 -3.57091 1998 ft 14 kts 142°
2026-05-08 03:19 40.47609 -3.56971 1993 ft 18 kts 142°
2026-05-08 03:19 40.47542 -3.56906 1990 ft 19 kts 143°
2026-05-08 03:19 40.47447 -3.56812 1989 ft 13 kts 142°
2026-05-08 03:20 40.47371 -3.56734 1989 ft 15 kts 142°
2026-05-08 03:20 40.47302 -3.56665 1985 ft 12 kts 142°
2026-05-08 03:20 40.47228 -3.56588 1983 ft 15 kts 142°
2026-05-08 03:20 40.47134 -3.56502 1979 ft 17 kts 152°
2026-05-08 03:21 40.47012 -3.56458 1979 ft 19 kts 176°
2026-05-08 03:21 40.46893 -3.56457 1974 ft 13 kts 184°
2026-05-08 03:21 40.46834 -3.56462 1978 ft 7 kts 186°
2026-05-08 03:21 40.46803 -3.56507 1974 ft 7 kts 257°
2026-05-08 03:22 40.46803 -3.56574 1973 ft 7 kts 273°
2026-05-08 03:22 40.46805 -3.56641 1973 ft 8 kts 264°
2026-05-08 03:22 40.46773 -3.56692 1973 ft 8 kts 200°
2026-05-08 03:22 40.46715 -3.56701 1973 ft 9 kts 183°
2026-05-08 03:23 40.46650 -3.56706 1972 ft 10 kts 183°
2026-05-08 03:23 40.46602 -3.56709 1972 ft 6 kts 183°
2026-05-08 03:23 40.46576 -3.56746 1972 ft 6 kts 258°
2026-05-08 03:23 40.46570 -3.56804 1972 ft 6 kts 262°
2026-05-08 03:24 40.46568 -3.56823 1972 ft 2 kts 262°
2026-05-08 03:24 40.46568 -3.56826 1972 ft 0 kts 262°